�N����,����,�~����,�C��,���x,�C��,����,���ϕ���,�ő�u�ԕ���,�ő厞����,���˗�,�I�_���x,�n�����x,�ő啗���N��,DTYPE
"22/09/07","00:10",0.2,22.6,95.4,1004.8,337.2,0.5,1.4,305.0,0.00,21.9,26.4,"00:06:48",1
"22/09/07","00:20",0.2,22.7,95.3,1004.8,316.7,0.3,0.9,294.2,0.00,21.9,26.1,"00:19:36",1
"22/09/07","00:30",0.0,22.6,95.4,1005.0,276.1,0.5,1.0,247.3,0.00,21.9,26.1,"00:23:20",1
"22/09/07","00:40",0.0,22.7,95.4,1005.0,269.7,0.3,1.2,218.0,0.00,22.0,26.0,"00:32:40",1
"22/09/07","00:50",0.0,22.7,95.4,1004.8,250.7,0.5,1.0,325.0,0.00,22.0,25.9,"00:47:20",1
"22/09/07","01:00",0.0,22.7,95.4,1004.8,303.6,0.3,0.8,326.4,0.00,22.0,26.1,"00:56:08",1
"22/09/07","01:10",0.0,22.7,95.4,1004.8,284.7,0.5,1.0,248.1,0.00,22.0,26.2,"01:05:04",1
"22/09/07","01:20",0.2,22.5,95.4,1004.8,294.5,0.7,1.6,332.4,0.00,21.8,25.9,"01:16:48",1
"22/09/07","01:30",0.0,22.5,95.4,1004.8,308.9,0.6,1.7,335.4,0.00,21.8,26.0,"01:21:52",1
"22/09/07","01:40",0.0,22.5,95.5,1004.8,307.3,0.7,1.6,348.0,0.00,21.8,25.9,"01:32:56",1
"22/09/07","01:50",0.0,22.5,95.5,1004.8,306.6,0.6,1.7,333.2,0.00,21.8,26.0,"01:42:32",1
"22/09/07","02:00",0.0,22.6,95.4,1004.3,267.4,0.5,0.9,253.2,0.00,21.9,25.9,"01:59:44",1
"22/09/07","02:10",0.0,22.5,95.5,1005.0,279.6,0.6,1.3,314.8,0.00,21.8,25.8,"02:07:28",1
"22/09/07","02:20",0.0,22.4,95.5,1005.0,304.7,0.8,1.8,291.6,0.00,21.7,26.0,"02:12:56",1
"22/09/07","02:30",0.0,22.4,95.6,1004.8,339.0,1.0,2.6,350.2,0.00,21.7,25.8,"02:29:36",1
"22/09/07","02:40",0.0,22.2,95.6,1005.0,304.0,1.0,2.1,335.1,0.00,21.5,25.9,"02:31:12",1
"22/09/07","02:50",0.0,22.2,95.6,1005.0,301.5,0.8,1.9,240.1,0.00,21.5,25.8,"02:43:28",1
"22/09/07","03:00",0.0,22.2,95.6,1005.0,302.8,0.7,1.4,297.0,0.00,21.5,25.7,"02:50:16",1
"22/09/07","03:10",0.0,22.2,95.6,1005.2,307.1,0.8,2.0,350.5,0.00,21.5,25.7,"03:06:32",1
"22/09/07","03:20",0.0,22.1,95.6,1005.2,319.6,1.0,2.5,343.5,0.00,21.4,25.8,"03:18:56",1
"22/09/07","03:30",0.0,22.1,95.6,1005.5,284.6,0.8,1.6,331.9,0.00,21.4,25.9,"03:25:36",1
"22/09/07","03:40",0.0,22.3,95.5,1005.5,270.5,1.0,1.9,255.4,0.00,21.6,25.6,"03:38:56",1
"22/09/07","03:50",0.0,22.1,95.5,1005.7,314.6,1.0,2.2,354.1,0.00,21.4,25.8,"03:49:04",1
"22/09/07","04:00",0.0,22.1,95.4,1005.7,318.9,1.1,2.4,351.1,0.00,21.4,25.7,"03:50:16",1
"22/09/07","04:10",0.0,22.1,95.4,1005.7,319.5,0.8,1.8,324.4,0.00,21.4,25.7,"04:04:40",1
"22/09/07","04:20",0.0,21.9,95.4,1006.0,303.2,1.1,3.2,347.3,0.00,21.2,25.6,"04:13:04",1
"22/09/07","04:30",0.0,21.8,95.3,1005.5,315.9,1.0,2.0,345.4,0.00,21.1,25.5,"04:20:40",1
"22/09/07","04:40",0.0,21.7,95.3,1005.7,322.1,1.2,1.9,341.3,0.00,21.0,25.7,"04:32:00",1
"22/09/07","04:50",0.0,21.6,95.3,1006.0,288.6,0.8,1.6,332.3,0.00,20.9,25.7,"04:40:08",1
"22/09/07","05:00",0.0,21.6,95.3,1006.0,294.9,1.1,2.1,324.6,0.00,20.9,25.4,"04:52:00",1
"22/09/07","05:10",0.0,21.6,95.3,1006.0,323.4,1.2,2.9,338.9,0.00,20.9,25.4,"05:08:40",1
"22/09/07","05:20",0.0,21.6,95.2,1006.4,287.9,1.1,2.1,308.5,0.00,20.8,25.6,"05:13:20",1
"22/09/07","05:30",0.2,21.6,95.2,1006.2,304.8,1.0,1.7,333.6,0.00,20.8,25.7,"05:26:32",1
"22/09/07","05:40",0.0,21.6,95.2,1006.4,283.7,0.8,1.8,322.0,0.00,20.8,25.5,"05:35:20",1
"22/09/07","05:50",0.0,21.5,95.1,1006.4,317.8,1.1,1.8,325.9,0.00,20.7,25.5,"05:45:52",1
"22/09/07","06:00",0.0,21.5,94.9,1006.7,316.2,1.1,2.2,340.5,0.00,20.7,25.5,"05:51:52",1
"22/09/07","06:10",0.0,21.6,94.8,1006.4,290.6,1.2,2.1,325.6,0.00,20.8,25.4,"06:03:04",1
"22/09/07","06:20",0.0,21.6,94.7,1006.9,294.8,1.1,2.0,342.5,0.00,20.8,25.4,"06:11:28",1
"22/09/07","06:30",0.0,21.8,94.6,1006.9,298.9,1.1,2.0,336.2,0.00,20.9,25.2,"06:23:44",1
"22/09/07","06:40",0.0,21.9,94.5,1006.9,320.2,1.2,2.1,326.3,0.00,21.0,25.5,"06:32:32",1
"22/09/07","06:50",0.0,21.7,94.5,1007.1,313.6,1.3,2.2,338.1,0.00,20.8,25.3,"06:45:52",1
"22/09/07","07:00",0.0,21.8,94.3,1007.1,311.6,1.3,1.9,336.8,0.00,20.9,25.3,"06:53:20",1
"22/09/07","07:10",0.0,21.7,94.2,1007.1,307.1,1.6,2.6,325.6,0.00,20.8,25.4,"07:04:00",1
"22/09/07","07:20",0.0,21.8,94.1,1007.1,302.1,1.5,2.4,332.6,0.01,20.8,25.2,"07:14:24",1
"22/09/07","07:30",0.0,21.9,93.8,1007.4,291.1,1.2,2.1,267.7,0.02,20.9,25.2,"07:29:12",1
"22/09/07","07:40",0.0,21.9,93.5,1007.1,293.5,1.3,1.9,316.4,0.03,20.8,25.3,"07:33:12",1
"22/09/07","07:50",0.0,21.8,92.8,1007.4,289.6,1.3,3.1,327.5,0.04,20.6,25.2,"07:47:04",1
"22/09/07","08:00",0.0,22.1,92.3,1007.4,274.3,1.2,2.8,244.5,0.05,20.8,25.2,"07:54:40",1
"22/09/07","08:10",0.0,22.5,91.4,1007.6,293.9,1.1,2.1,293.5,0.06,21.1,25.2,"08:02:48",1
"22/09/07","08:20",0.0,22.7,89.6,1007.8,317.3,1.2,2.9,336.2,0.08,20.9,25.3,"08:14:08",1
"22/09/07","08:30",0.0,23.2,88.1,1007.6,303.5,1.3,2.9,237.1,0.10,21.2,25.2,"08:24:48",1
"22/09/07","08:40",0.0,23.5,85.3,1008.1,352.1,1.5,3.6,13.5,0.11,20.9,25.1,"08:33:04",1
"22/09/07","08:50",0.0,23.9,82.9,1007.8,344.7,1.5,3.5,14.1,0.14,20.9,25.2,"08:40:48",1
"22/09/07","09:00",0.0,24.4,80.7,1007.6,282.6,0.6,1.9,241.8,0.13,20.9,25.3,"08:53:12",1
"22/09/07","09:10",0.0,24.9,79.7,1007.6,273.4,0.6,1.6,321.3,0.13,21.2,25.3,"09:05:28",1
"22/09/07","09:20",0.0,24.9,78.1,1007.8,307.6,1.2,2.7,333.0,0.14,20.9,25.4,"09:15:20",1
"22/09/07","09:30",0.0,25.0,77.7,1007.8,320.4,1.5,2.5,323.9,0.15,20.9,25.3,"09:25:12",1
"22/09/07","09:40",0.0,25.3,77.2,1007.6,299.4,1.2,3.4,238.2,0.18,21.1,25.3,"09:38:48",1
"22/09/07","09:50",0.0,25.4,76.4,1007.8,279.8,1.0,2.2,245.9,0.18,21.0,25.4,"09:40:48",1
"22/09/07","10:00",0.0,25.8,76.1,1007.6,318.7,1.0,1.7,328.7,0.19,21.3,25.4,"09:52:32",1
"22/09/07","10:10",0.0,26.2,75.8,1007.1,322.0,1.3,3.3,331.2,0.23,21.6,25.4,"10:07:36",1
"22/09/07","10:20",0.0,26.8,74.1,1007.1,359.2,1.1,2.4,8.9,0.28,21.8,25.5,"10:12:56",1
"22/09/07","10:30",0.0,26.9,73.4,1006.9,310.7,1.1,2.5,242.5,0.23,21.8,25.5,"10:28:24",1
"22/09/07","10:40",0.0,26.8,73.2,1006.7,332.1,1.5,3.2,344.0,0.24,21.6,25.5,"10:37:20",1
"22/09/07","10:50",0.0,27.4,72.8,1006.2,347.5,1.2,3.4,8.0,0.30,22.1,25.7,"10:43:36",1
"22/09/07","11:00",0.0,28.2,72.3,1006.4,323.9,1.3,5.0,331.4,0.45,22.8,25.6,"10:55:20",1
"22/09/07","11:10",0.0,28.6,69.2,1006.9,334.6,1.2,3.9,21.8,0.44,22.4,25.7,"11:00:02",1
"22/09/07","11:20",0.0,29.2,67.4,1007.1,28.3,1.0,2.9,37.3,0.47,22.6,25.6,"11:10:24",1
"22/09/07","11:30",0.0,29.3,64.7,1006.9,354.8,1.6,4.3,350.5,0.41,22.0,25.9,"11:20:02",1
"22/09/07","11:40",0.0,29.5,66.4,1007.1,340.1,1.5,4.0,346.2,0.56,22.6,26.0,"11:31:12",1
"22/09/07","11:50",0.0,29.6,63.9,1007.1,354.7,1.7,4.0,37.2,0.54,22.1,25.9,"11:49:04",1
"22/09/07","12:00",0.0,29.4,64.3,1006.9,344.8,2.1,4.0,350.3,0.54,22.0,26.0,"11:54:00",1
"22/09/07","12:10",0.0,29.1,64.9,1007.1,351.5,3.0,4.8,352.7,0.54,21.9,26.2,"12:04:16",1
"22/09/07","12:20",0.0,28.9,67.4,1006.4,353.7,2.2,5.1,353.2,0.37,22.3,26.2,"12:19:20",1
"22/09/07","12:30",0.0,27.8,67.9,1006.2,337.4,3.1,5.6,337.4,0.38,21.4,26.4,"12:24:56",1
"22/09/07","12:40",0.0,28.2,68.4,1006.2,341.4,2.6,5.8,351.6,0.56,21.9,26.5,"12:36:40",1
"22/09/07","12:50",0.0,28.7,67.5,1006.4,346.5,2.7,5.7,350.1,0.54,22.1,26.6,"12:42:32",1
"22/09/07","13:00",0.0,29.1,66.2,1006.2,349.4,2.7,5.1,1.5,0.56,22.2,26.7,"12:59:44",1
"22/09/07","13:10",0.0,29.1,66.6,1006.2,350.6,2.6,4.8,352.5,0.55,22.3,26.7,"13:04:16",1
"22/09/07","13:20",0.0,28.6,66.8,1006.7,350.6,3.2,5.6,346.7,0.54,21.9,26.8,"13:13:36",1
"22/09/07","13:30",0.0,28.5,67.2,1006.0,345.9,2.7,5.6,27.7,0.44,21.9,26.8,"13:21:52",1
"22/09/07","13:40",0.0,28.6,68.2,1006.4,342.5,3.4,7.2,325.5,0.47,22.2,26.8,"13:35:12",1
"22/09/07","13:50",0.0,28.6,67.5,1006.2,344.5,3.2,6.4,319.3,0.55,22.0,27.1,"13:46:00",1
"22/09/07","14:00",0.0,28.9,66.9,1006.0,352.9,3.0,5.6,350.2,0.53,22.2,27.2,"13:50:08",1
"22/09/07","14:10",0.0,29.1,65.9,1005.7,2.2,2.3,5.4,14.3,0.34,22.1,27.2,"14:06:56",1
"22/09/07","14:20",0.0,29.3,65.5,1006.0,350.7,2.2,5.4,0.9,0.33,22.2,27.4,"14:16:24",1
"22/09/07","14:30",0.0,29.2,66.4,1005.7,344.1,1.8,4.0,351.1,0.28,22.3,27.1,"14:27:04",1
"22/09/07","14:40",0.0,29.0,66.2,1006.0,339.9,3.0,6.0,320.2,0.38,22.1,27.3,"14:33:28",1
"22/09/07","14:50",0.0,28.7,66.4,1006.0,348.6,2.5,5.4,318.9,0.30,21.9,27.5,"14:44:00",1
"22/09/07","15:00",0.0,29.6,64.3,1006.2,13.0,2.0,5.7,1.3,0.46,22.2,27.7,"14:50:02",1
"22/09/07","15:10",0.0,29.5,64.0,1006.2,2.6,2.6,5.2,335.2,0.41,22.0,27.6,"15:01:12",1
"22/09/07","15:20",0.0,29.5,64.4,1006.4,347.1,2.2,4.2,348.6,0.39,22.1,27.7,"15:13:20",1
"22/09/07","15:30",0.0,29.7,64.0,1006.4,347.6,1.7,4.4,46.7,0.33,22.2,27.6,"15:20:40",1
"22/09/07","15:40",0.0,28.8,66.0,1006.4,350.1,2.0,4.9,341.4,0.19,21.9,27.8,"15:38:56",1
"22/09/07","15:50",0.0,28.5,68.3,1006.4,326.4,2.6,4.4,313.6,0.29,22.1,27.7,"15:41:28",1
"22/09/07","16:00",0.0,27.9,69.1,1006.0,340.5,2.8,5.5,340.3,0.21,21.8,27.9,"15:54:00",1
"22/09/07","16:10",0.0,27.9,69.8,1005.7,332.6,2.2,4.1,337.8,0.21,21.9,27.7,"16:02:16",1
"22/09/07","16:20",0.0,28.5,68.0,1005.5,344.5,2.0,6.0,326.3,0.25,22.1,27.7,"16:13:12",1
"22/09/07","16:30",0.0,28.7,68.3,1006.0,350.3,2.0,5.0,356.2,0.27,22.3,27.7,"16:20:48",1
"22/09/07","16:40",0.0,28.6,67.4,1006.2,344.3,2.1,4.5,356.2,0.20,22.0,27.7,"16:35:04",1
"22/09/07","16:50",0.0,27.9,69.8,1006.2,340.2,2.1,5.2,358.9,0.12,21.9,27.9,"16:40:08",1
"22/09/07","17:00",0.0,27.4,70.2,1005.5,339.9,2.3,4.8,2.5,0.12,21.5,27.8,"16:58:56",1
"22/09/07","17:10",0.0,27.2,71.2,1005.5,343.3,2.2,4.8,325.4,0.06,21.6,27.8,"17:06:40",1
"22/09/07","17:20",0.0,26.5,73.4,1005.7,329.8,2.5,5.8,336.2,0.03,21.4,28.0,"17:17:36",1
"22/09/07","17:30",0.0,26.2,75.2,1006.2,339.9,2.2,4.9,330.2,0.02,21.5,27.8,"17:27:52",1
"22/09/07","17:40",0.0,26.0,76.1,1006.9,333.7,1.8,4.1,344.8,0.01,21.5,27.9,"17:39:36",1
"22/09/07","17:50",0.0,25.8,76.9,1006.9,326.4,1.8,4.3,349.1,0.02,21.5,28.0,"17:42:40",1
"22/09/07","18:00",0.0,25.8,77.5,1007.1,329.1,1.6,4.8,349.8,0.02,21.6,27.9,"17:54:00",1
"22/09/07","18:10",0.0,25.6,77.7,1007.1,332.8,2.1,4.8,329.8,0.01,21.5,27.7,"18:08:24",1
"22/09/07","18:20",0.0,25.5,78.0,1007.1,322.8,2.2,4.9,328.1,0.00,21.4,27.9,"18:11:44",1
"22/09/07","18:30",0.0,25.3,78.3,1006.9,322.4,2.0,4.5,303.5,0.00,21.3,27.7,"18:24:56",1
"22/09/07","18:40",0.0,25.2,78.4,1007.1,329.4,2.2,3.7,330.3,0.00,21.2,27.6,"18:38:40",1
"22/09/07","18:50",0.0,25.1,78.5,1007.4,338.0,2.1,4.3,354.1,0.00,21.1,27.5,"18:49:52",1
"22/09/07","19:00",0.0,25.0,78.4,1007.6,325.7,2.2,4.1,344.8,0.00,21.0,27.6,"18:56:16",1
"22/09/07","19:10",0.0,25.0,78.4,1007.4,330.0,2.1,3.7,321.3,0.00,21.0,27.3,"19:05:44",1
"22/09/07","19:20",0.0,24.9,78.6,1007.8,327.8,1.7,3.7,342.1,0.00,21.0,27.4,"19:12:40",1
"22/09/07","19:30",0.0,24.8,78.7,1007.8,323.4,1.5,2.6,335.5,0.00,20.9,27.3,"19:20:32",1
"22/09/07","19:40",0.0,24.8,78.8,1007.8,308.4,1.3,2.6,310.1,0.00,20.9,27.3,"19:30:48",1
"22/09/07","19:50",0.0,24.8,79.0,1007.8,321.2,1.2,2.6,330.2,0.00,21.0,27.3,"19:49:44",1
"22/09/07","20:00",0.0,24.7,79.0,1007.8,319.7,1.6,3.6,336.4,0.00,20.9,27.3,"19:53:44",1
"22/09/07","20:10",0.0,24.7,79.1,1008.6,320.5,1.5,2.9,350.5,0.00,20.9,27.3,"20:01:52",1
"22/09/07","20:20",0.0,24.7,79.3,1008.3,313.2,1.3,2.8,328.3,0.00,20.9,27.2,"20:18:48",1
"22/09/07","20:30",0.0,24.7,79.5,1008.6,320.4,1.3,2.5,352.6,0.00,21.0,27.2,"20:25:36",1
"22/09/07","20:40",0.0,24.6,79.7,1008.3,317.5,1.6,4.5,332.5,0.00,20.9,27.0,"20:39:52",1
"22/09/07","20:50",0.0,24.6,79.9,1008.6,327.8,1.6,4.1,327.7,0.00,20.9,26.9,"20:40:16",1
"22/09/07","21:00",0.0,24.7,79.8,1008.6,328.5,1.2,2.9,331.3,0.00,21.0,27.2,"20:52:00",1
"22/09/07","21:10",0.0,24.6,80.2,1008.8,319.5,1.1,3.2,329.1,0.00,21.0,26.9,"21:00:08",1
"22/09/07","21:20",0.0,24.4,80.7,1009.0,305.9,1.3,2.5,325.6,0.00,20.9,26.7,"21:13:52",1
"22/09/07","21:30",0.0,24.3,81.2,1008.8,315.3,1.7,3.1,320.7,0.00,20.9,26.7,"21:24:08",1
"22/09/07","21:40",0.0,24.2,81.6,1008.6,330.9,1.7,3.3,343.7,0.00,20.9,26.7,"21:30:02",1
"22/09/07","21:50",0.0,24.2,82.0,1008.6,319.6,1.6,2.6,324.8,0.00,21.0,26.6,"21:46:32",1
"22/09/07","22:00",0.0,24.1,82.4,1008.6,313.3,1.7,2.8,309.6,0.00,21.0,26.7,"21:52:00",1
"22/09/07","22:10",0.0,24.1,82.6,1008.3,317.9,1.7,2.8,341.3,0.00,21.0,26.7,"22:02:48",1
"22/09/07","22:20",0.0,24.0,83.0,1008.8,317.9,1.5,3.5,323.6,0.00,21.0,26.7,"22:10:02",1
"22/09/07","22:30",0.0,24.1,83.4,1008.8,313.4,1.2,2.2,317.7,0.00,21.2,26.7,"22:29:04",1
"22/09/07","22:40",0.0,24.2,83.4,1008.6,315.9,1.3,3.5,352.1,0.00,21.2,26.6,"22:34:08",1
"22/09/07","22:50",0.0,24.2,83.5,1008.8,327.8,1.5,2.8,317.3,0.00,21.3,26.5,"22:40:56",1
"22/09/07","23:00",0.0,24.4,83.3,1008.8,328.7,2.0,4.0,348.3,0.00,21.4,26.5,"22:53:20",1
"22/09/07","23:10",0.0,24.4,83.1,1008.8,325.9,1.7,3.7,337.6,0.00,21.4,26.5,"23:07:20",1
"22/09/07","23:20",0.0,24.4,82.9,1009.0,317.6,2.0,3.7,322.2,0.00,21.3,26.5,"23:19:52",1
"22/09/07","23:30",0.0,24.5,82.7,1008.8,324.3,1.6,3.1,338.2,0.00,21.4,26.4,"23:21:20",1
"22/09/07","23:40",0.0,24.3,82.9,1008.6,307.6,1.3,2.7,323.4,0.00,21.2,26.4,"23:34:08",1
"22/09/07","23:50",0.0,24.2,83.2,1008.6,311.5,1.2,2.1,330.9,0.00,21.2,26.3,"23:45:52",1
"22/09/07","24:00",0.0,24.1,83.6,1008.6,321.0,1.2,2.6,311.4,0.00,21.2,26.2,"23:54:24",1
